This is the latest recevied weather packets stored in our database for station/object N4VTB-13. If no packets are shown the sender has not sent any weather packets the latest 10 day(s).
| Time | Temp. | Humidity | Pressure | Rain* | Wind** | Luminosity | Snow |
|---|---|---|---|---|---|---|---|
| 1777789276 | 15° C | 69% | 1015.6 hPa | 0 mm | - | 0 W/m² | - |
| 1777788076 | 15° C | 69% | 1015.6 hPa | 0 mm | - | 0 W/m² | - |
| 1777785076 | 15.56° C | 67% | 1015.5 hPa | 0 mm | - | 0 W/m² | - |
| 1777783896 | 15.56° C | 65% | 1015.5 hPa | 0 mm | - | 0 W/m² | - |
| 1777779075 | 17.78° C | 62% | 1014.4 hPa | 0 mm | - | 0 W/m² | - |
| 1777778475 | 18.33° C | 64% | 1014.3 hPa | 0 mm | - | 0 W/m² | - |
| 1777776075 | 19.44° C | 63% | 1014.1 hPa | 0 mm | - | 12 W/m² | - |
| 1777771875 | 21.67° C | 57% | 1014 hPa | 0 mm | - | 144 W/m² | - |
| 1777771275 | 22.22° C | 56% | 1014.2 hPa | 0 mm | - | 45 W/m² | - |
| 1777769495 | 22.78° C | 58% | 1014.3 hPa | 0 mm | - | 200 W/m² | - |
| 1777768875 | 22.78° C | 57% | 1014.4 hPa | 0 mm | - | 72 W/m² | - |
| 1777761717 | 22.22° C | 60% | 1015.4 hPa | 0 mm | - | 58 W/m² | - |
| 1777758717 | 22.22° C | 61% | 1016 hPa | 0 mm | - | 80 W/m² | - |
| 1777741276 | 14.44° C | 79% | 1018.2 hPa | 0 mm | - | 271 W/m² | - |
| 1777740677 | 14.44° C | 80% | 1018.2 hPa | 0 mm | - | 243 W/m² | - |
| 1777740076 | 14.44° C | 79% | 1018.2 hPa | 0 mm | - | 267 W/m² | - |
| 1777738876 | 13.33° C | 83% | 1018 hPa | 0 mm | - | 302 W/m² | - |
| 1777736476 | 12.22° C | 84% | 1017.6 hPa | 0 mm | - | 162 W/m² | - |
| 1777734676 | 11.67° C | 87% | 1017.7 hPa | 0 mm | - | 114 W/m² | - |
| 1777732276 | 10.56° C | 90% | 1017.2 hPa | 0 mm | - | 64 W/m² | - |
| 1777729276 | 10° C | 90% | 1017.4 hPa | 0 mm | - | 19 W/m² | - |
| 1777726276 | 10° C | 89% | 1017.4 hPa | 0 mm | - | 0 W/m² | - |
| 1777717876 | 10° C | 86% | 1017.4 hPa | 0 mm | - | 0 W/m² | - |
| 1777717276 | 10° C | 86% | 1017.3 hPa | 0 mm | - | 0 W/m² | - |
| 1777715476 | 10.56° C | 84% | 1017.6 hPa | 0 mm | - | 0 W/m² | - |
* Rain latest hour (hover to see other rain measurements)
** Current wind speed in m/s (hover to see current wind gust speed)